Year,Month,Day,Hour,Minute,Value (Times are PST for windgust in km/hr)
2014,02,16,00,00,14.50
2014,02,16,00,01,35.40
2014,02,16,00,02,24.20
2014,02,16,00,03,22.50
2014,02,16,00,04,30.60
2014,02,16,00,05,17.70
2014,02,16,00,06,20.90
2014,02,16,00,07,20.90
2014,02,16,00,08,22.50
2014,02,16,00,09,16.10
2014,02,16,00,10,11.30
2014,02,16,00,11,6.40
2014,02,16,00,12,8.10
2014,02,16,00,13,17.70
2014,02,16,00,14,9.60
2014,02,16,00,15,12.90
2014,02,16,00,16,9.60
2014,02,16,00,17,14.50
2014,02,16,00,18,16.10
2014,02,16,00,19,9.60
2014,02,16,00,20,11.30
2014,02,16,00,21,11.30
2014,02,16,00,22,9.60
2014,02,16,00,23,14.50
2014,02,16,00,24,17.70
2014,02,16,00,25,11.30
2014,02,16,00,26,24.20
2014,02,16,00,27,16.10
2014,02,16,00,28,17.70
2014,02,16,00,29,9.60
2014,02,16,00,30,11.30
2014,02,16,00,31,16.10
2014,02,16,00,32,29.00
2014,02,16,00,33,19.30
2014,02,16,00,34,17.70
2014,02,16,00,35,41.80
2014,02,16,00,36,24.20
2014,02,16,00,37,19.30
2014,02,16,00,38,30.60
2014,02,16,00,39,20.90
2014,02,16,00,40,22.50
2014,02,16,00,41,27.40
2014,02,16,00,42,24.20
2014,02,16,00,43,38.60
2014,02,16,00,44,24.20
2014,02,16,00,45,16.10
2014,02,16,00,46,16.10
2014,02,16,00,47,24.20
2014,02,16,00,48,25.70
2014,02,16,00,49,32.20
2014,02,16,00,50,25.70
2014,02,16,00,51,17.70
2014,02,16,00,52,17.70
2014,02,16,00,53,14.50
2014,02,16,00,54,29.00
2014,02,16,00,55,25.70
2014,02,16,00,56,20.90
2014,02,16,00,57,19.30
2014,02,16,00,58,11.30
2014,02,16,00,59,29.00
2014,02,16,01,00,11.30
2014,02,16,01,01,11.30
2014,02,16,01,02,9.60
2014,02,16,01,03,14.50
2014,02,16,01,04,27.40
2014,02,16,01,05,22.50
2014,02,16,01,06,17.70
2014,02,16,01,07,16.10
2014,02,16,01,08,14.50
2014,02,16,01,09,12.90
2014,02,16,01,10,20.90
2014,02,16,01,11,19.30
2014,02,16,01,12,27.40
2014,02,16,01,13,22.50
2014,02,16,01,14,29.00
2014,02,16,01,15,27.40
2014,02,16,01,16,16.10
2014,02,16,01,17,27.40
2014,02,16,01,18,20.90
2014,02,16,01,19,22.50
2014,02,16,01,20,24.20
2014,02,16,01,21,27.40
2014,02,16,01,22,19.30
2014,02,16,01,23,17.70
2014,02,16,01,24,22.50
2014,02,16,01,25,25.70
2014,02,16,01,26,29.00
2014,02,16,01,27,27.40
2014,02,16,01,28,22.50
2014,02,16,01,29,17.70
2014,02,16,01,30,20.90
2014,02,16,01,31,17.70
2014,02,16,01,32,16.10
2014,02,16,01,33,22.50
2014,02,16,01,34,11.30
2014,02,16,01,35,25.70
2014,02,16,01,36,16.10
2014,02,16,01,37,17.70
2014,02,16,01,38,19.30
2014,02,16,01,39,27.40
2014,02,16,01,40,12.90
2014,02,16,01,41,9.60
2014,02,16,01,42,14.50
2014,02,16,01,43,6.40
2014,02,16,01,44,14.50
2014,02,16,01,45,11.30
2014,02,16,01,46,17.70
2014,02,16,01,47,11.30
2014,02,16,01,48,16.10
2014,02,16,01,49,11.30
2014,02,16,01,50,9.60
2014,02,16,01,51,19.30
2014,02,16,01,52,22.50
2014,02,16,01,53,19.30
2014,02,16,01,54,11.30
2014,02,16,01,55,8.10
2014,02,16,01,56,9.60
2014,02,16,01,57,24.20
2014,02,16,01,58,25.70
2014,02,16,01,59,14.50
2014,02,16,02,00,16.10
2014,02,16,02,01,19.30
2014,02,16,02,02,8.10
2014,02,16,02,03,11.30
2014,02,16,02,04,6.40
2014,02,16,02,05,17.70
2014,02,16,02,06,17.70
2014,02,16,02,07,14.50
2014,02,16,02,08,12.90
2014,02,16,02,09,8.10
2014,02,16,02,10,14.50
2014,02,16,02,11,12.90
2014,02,16,02,12,11.30
2014,02,16,02,13,14.50
2014,02,16,02,14,25.70
2014,02,16,02,15,16.10
2014,02,16,02,16,11.30
2014,02,16,02,17,14.50
2014,02,16,02,18,9.60
2014,02,16,02,19,19.30
2014,02,16,02,20,16.10
2014,02,16,02,21,11.30
2014,02,16,02,22,9.60
2014,02,16,02,23,6.40
2014,02,16,02,24,16.10
2014,02,16,02,25,12.90
2014,02,16,02,26,6.40
2014,02,16,02,27,8.10
2014,02,16,02,28,9.60
2014,02,16,02,29,9.60
2014,02,16,02,30,14.50
2014,02,16,02,31,9.60
2014,02,16,02,32,9.60
2014,02,16,02,33,9.60
2014,02,16,02,34,9.60
2014,02,16,02,35,9.60
2014,02,16,02,36,14.50
2014,02,16,02,37,14.50
2014,02,16,02,38,9.60
2014,02,16,02,39,25.70
2014,02,16,02,40,22.50
2014,02,16,02,41,16.10
2014,02,16,02,42,16.10
2014,02,16,02,43,20.90
2014,02,16,02,44,17.70
2014,02,16,02,45,14.50
2014,02,16,02,46,17.70
2014,02,16,02,47,25.70
2014,02,16,02,48,19.30
2014,02,16,02,49,25.70
2014,02,16,02,50,17.70
2014,02,16,02,51,17.70
2014,02,16,02,52,20.90
2014,02,16,02,53,16.10
2014,02,16,02,54,17.70
2014,02,16,02,55,8.10
2014,02,16,02,56,9.60
2014,02,16,02,57,6.40
2014,02,16,02,58,9.60
2014,02,16,02,59,8.10
2014,02,16,03,00,16.10
2014,02,16,03,01,11.30
2014,02,16,03,02,9.60
2014,02,16,03,03,16.10
2014,02,16,03,04,16.10
2014,02,16,03,05,16.10
2014,02,16,03,06,33.80
2014,02,16,03,07,24.20
2014,02,16,03,08,11.30
2014,02,16,03,09,9.60
2014,02,16,03,10,17.70
2014,02,16,03,11,16.10
2014,02,16,03,12,11.30
2014,02,16,03,13,8.10
2014,02,16,03,14,9.60
2014,02,16,03,15,9.60
2014,02,16,03,16,19.30
2014,02,16,03,17,20.90
2014,02,16,03,18,19.30
2014,02,16,03,19,19.30
2014,02,16,03,20,14.50
2014,02,16,03,21,11.30
2014,02,16,03,22,8.10
2014,02,16,03,23,17.70
2014,02,16,03,24,22.50
2014,02,16,03,25,24.20
2014,02,16,03,26,4.80
2014,02,16,03,27,12.90
2014,02,16,03,28,9.60
2014,02,16,03,29,24.20
2014,02,16,03,30,16.10
2014,02,16,03,31,29.00
2014,02,16,03,32,20.90
2014,02,16,03,33,24.20
2014,02,16,03,34,16.10
2014,02,16,03,35,20.90
2014,02,16,03,36,20.90
2014,02,16,03,37,32.20
2014,02,16,03,38,17.70
2014,02,16,03,39,16.10
2014,02,16,03,40,14.50
2014,02,16,03,41,24.20
2014,02,16,03,42,19.30
2014,02,16,03,43,17.70
2014,02,16,03,44,14.50
2014,02,16,03,45,29.00
2014,02,16,03,46,27.40
2014,02,16,03,47,11.30
2014,02,16,03,48,17.70
2014,02,16,03,49,19.30
2014,02,16,03,50,16.10
2014,02,16,03,51,19.30
2014,02,16,03,52,24.20
2014,02,16,03,53,19.30
2014,02,16,03,54,17.70
2014,02,16,03,55,19.30
2014,02,16,03,56,20.90
2014,02,16,03,57,17.70
2014,02,16,03,58,17.70
2014,02,16,03,59,19.30
2014,02,16,04,00,8.10
2014,02,16,04,01,14.50
2014,02,16,04,02,6.40
2014,02,16,04,03,8.10
2014,02,16,04,04,8.10
2014,02,16,04,05,12.90
2014,02,16,04,06,8.10
2014,02,16,04,07,11.30
2014,02,16,04,08,17.70
2014,02,16,04,09,9.60
2014,02,16,04,10,3.20
2014,02,16,04,11,3.20
2014,02,16,04,12,4.80
2014,02,16,04,13,8.10
2014,02,16,04,14,8.10
2014,02,16,04,15,6.40
2014,02,16,04,16,6.40
2014,02,16,04,17,4.80
2014,02,16,04,18,4.80
2014,02,16,04,19,3.20
2014,02,16,04,20,3.20
2014,02,16,04,21,3.20
2014,02,16,04,22,3.20
2014,02,16,04,23,4.80
2014,02,16,04,24,3.20
2014,02,16,04,25,8.10
2014,02,16,04,26,3.20
2014,02,16,04,27,8.10
2014,02,16,04,28,3.20
2014,02,16,04,29,6.40
2014,02,16,04,30,4.80
2014,02,16,04,31,6.40
2014,02,16,04,32,3.20
2014,02,16,04,33,3.20
2014,02,16,04,34,4.80
2014,02,16,04,35,4.80
2014,02,16,04,36,4.80
2014,02,16,04,37,11.30
2014,02,16,04,38,19.30
2014,02,16,04,39,11.30
2014,02,16,04,40,8.10
2014,02,16,04,41,17.70
2014,02,16,04,42,11.30
2014,02,16,04,43,27.40
2014,02,16,04,44,17.70
2014,02,16,04,45,11.30
2014,02,16,04,46,30.60
2014,02,16,04,47,12.90
2014,02,16,04,48,16.10
2014,02,16,04,49,9.60
2014,02,16,04,50,11.30
2014,02,16,04,51,12.90
2014,02,16,04,52,16.10
2014,02,16,04,53,16.10
2014,02,16,04,54,16.10
2014,02,16,04,55,8.10
2014,02,16,04,56,9.60
2014,02,16,04,57,16.10
2014,02,16,04,58,16.10
2014,02,16,04,59,9.60
2014,02,16,05,00,9.60
2014,02,16,05,01,6.40
2014,02,16,05,02,6.40
2014,02,16,05,03,4.80
2014,02,16,05,04,4.80
2014,02,16,05,05,4.80
2014,02,16,05,06,6.40
2014,02,16,05,07,3.20
2014,02,16,05,08,14.50
2014,02,16,05,09,6.40
2014,02,16,05,10,4.80
2014,02,16,05,11,9.60
2014,02,16,05,12,8.10
2014,02,16,05,13,8.10
2014,02,16,05,14,6.40
2014,02,16,05,15,4.80
2014,02,16,05,16,3.20
2014,02,16,05,17,1.60
2014,02,16,05,18,3.20
2014,02,16,05,19,3.20
2014,02,16,05,20,6.40
2014,02,16,05,21,4.80
2014,02,16,05,22,3.20
2014,02,16,05,23,4.80
2014,02,16,05,24,11.30
2014,02,16,05,25,9.60
2014,02,16,05,26,11.30
2014,02,16,05,27,3.20
2014,02,16,05,28,3.20
2014,02,16,05,29,4.80
2014,02,16,05,30,4.80
2014,02,16,05,31,8.10
2014,02,16,05,32,14.50
2014,02,16,05,33,11.30
2014,02,16,05,34,6.40
2014,02,16,05,35,24.20
2014,02,16,05,36,17.70
2014,02,16,05,37,6.40
2014,02,16,05,38,9.60
2014,02,16,05,39,4.80
2014,02,16,05,40,1.60
2014,02,16,05,41,6.40
2014,02,16,05,42,6.40
2014,02,16,05,43,16.10
2014,02,16,05,44,6.40
2014,02,16,05,45,4.80
2014,02,16,05,46,3.20
2014,02,16,05,47,6.40
2014,02,16,05,48,4.80
2014,02,16,05,49,4.80
2014,02,16,05,50,1.60
2014,02,16,05,51,3.20
2014,02,16,05,52,3.20
2014,02,16,05,53,3.20
2014,02,16,05,54,3.20
2014,02,16,05,55,4.80
2014,02,16,05,56,1.60
2014,02,16,05,57,4.80
2014,02,16,05,58,3.20
2014,02,16,05,59,1.60
2014,02,16,06,01,4.80
2014,02,16,06,02,1.60
2014,02,16,06,04,3.20
2014,02,16,06,05,3.20
2014,02,16,06,06,3.20
2014,02,16,06,07,3.20
2014,02,16,06,08,1.60
2014,02,16,06,09,3.20
2014,02,16,06,10,3.20
2014,02,16,06,11,3.20
2014,02,16,06,12,4.80
2014,02,16,06,13,4.80
2014,02,16,06,14,3.20
2014,02,16,06,15,6.40
2014,02,16,06,16,4.80
2014,02,16,06,17,4.80
2014,02,16,06,18,3.20
2014,02,16,06,19,3.20
2014,02,16,06,20,3.20
2014,02,16,06,22,3.20
2014,02,16,06,23,8.10
2014,02,16,06,24,4.80
2014,02,16,06,25,11.30
2014,02,16,06,26,8.10
2014,02,16,06,27,8.10
2014,02,16,06,28,8.10
2014,02,16,06,29,6.40
2014,02,16,06,30,4.80
2014,02,16,06,31,1.60
2014,02,16,06,32,6.40
2014,02,16,06,33,4.80
2014,02,16,06,34,6.40
2014,02,16,06,35,11.30
2014,02,16,06,36,9.60
2014,02,16,06,37,25.70
2014,02,16,06,38,20.90
2014,02,16,06,39,17.70
2014,02,16,06,40,25.70
2014,02,16,06,41,20.90
2014,02,16,06,42,11.30
2014,02,16,06,43,17.70
2014,02,16,06,44,14.50
2014,02,16,06,45,14.50
2014,02,16,06,46,30.60
2014,02,16,06,47,27.40
2014,02,16,06,48,12.90
2014,02,16,06,49,11.30
2014,02,16,06,50,8.10
2014,02,16,06,51,8.10
2014,02,16,06,52,3.20
2014,02,16,06,53,6.40
2014,02,16,06,54,3.20
2014,02,16,06,55,3.20
2014,02,16,06,56,8.10
2014,02,16,06,57,4.80
2014,02,16,06,58,4.80
2014,02,16,06,59,3.20
2014,02,16,07,00,9.60
2014,02,16,07,01,6.40
2014,02,16,07,02,4.80
2014,02,16,07,03,3.20
2014,02,16,07,04,4.80
2014,02,16,07,05,4.80
2014,02,16,07,06,6.40
2014,02,16,07,07,4.80
2014,02,16,07,08,4.80
2014,02,16,07,09,4.80
2014,02,16,07,10,4.80
2014,02,16,07,11,4.80
2014,02,16,07,12,1.60
2014,02,16,07,13,4.80
2014,02,16,07,14,4.80
2014,02,16,07,15,3.20
2014,02,16,07,16,3.20
2014,02,16,07,17,4.80
2014,02,16,07,18,6.40
2014,02,16,07,19,6.40
2014,02,16,07,20,3.20
2014,02,16,07,21,8.10
2014,02,16,07,22,4.80
2014,02,16,07,23,8.10
2014,02,16,07,24,9.60
2014,02,16,07,25,6.40
2014,02,16,07,26,8.10
2014,02,16,07,27,6.40
2014,02,16,07,28,1.60
2014,02,16,07,29,3.20
2014,02,16,07,30,6.40
2014,02,16,07,31,4.80
2014,02,16,07,32,3.20
2014,02,16,07,33,8.10
2014,02,16,07,34,4.80
2014,02,16,07,35,3.20
2014,02,16,07,36,3.20
2014,02,16,07,37,1.60
2014,02,16,07,38,1.60
2014,02,16,07,39,3.20
2014,02,16,07,40,3.20
2014,02,16,07,41,6.40
2014,02,16,07,42,6.40
2014,02,16,07,43,1.60
2014,02,16,07,44,3.20
2014,02,16,07,45,3.20
2014,02,16,07,46,3.20
2014,02,16,07,48,1.60
2014,02,16,07,49,1.60
2014,02,16,07,50,1.60
2014,02,16,07,52,4.80
2014,02,16,07,53,4.80
2014,02,16,07,54,1.60
2014,02,16,07,55,3.20
2014,02,16,07,56,4.80
2014,02,16,07,57,1.60
2014,02,16,07,58,3.20
2014,02,16,07,59,1.60
2014,02,16,08,06,1.60
2014,02,16,08,09,1.60
2014,02,16,08,10,1.60
2014,02,16,08,12,1.60
2014,02,16,08,23,1.60
2014,02,16,08,24,1.60
2014,02,16,08,25,1.60
2014,02,16,08,26,1.60
2014,02,16,08,40,1.60
2014,02,16,08,41,1.60
2014,02,16,08,45,1.60
2014,02,16,08,46,3.20
2014,02,16,08,47,3.20
2014,02,16,08,48,1.60
2014,02,16,08,49,1.60
2014,02,16,08,50,3.20
2014,02,16,08,51,1.60
2014,02,16,08,52,1.60
2014,02,16,08,55,1.60
2014,02,16,08,57,1.60
2014,02,16,08,58,3.20
2014,02,16,08,59,3.20
2014,02,16,09,00,3.20
2014,02,16,09,01,3.20
2014,02,16,09,02,3.20
2014,02,16,09,03,1.60
2014,02,16,09,04,1.60
2014,02,16,09,08,1.60
2014,02,16,09,09,1.60
2014,02,16,09,14,1.60
2014,02,16,09,15,3.20
2014,02,16,09,16,1.60
2014,02,16,09,19,1.60
2014,02,16,09,20,1.60
2014,02,16,09,21,3.20
2014,02,16,09,22,1.60
2014,02,16,09,23,1.60
2014,02,16,09,25,4.80
2014,02,16,09,26,6.40
2014,02,16,09,27,4.80
2014,02,16,09,28,4.80
2014,02,16,09,29,3.20
2014,02,16,09,30,4.80
2014,02,16,09,31,4.80
2014,02,16,09,32,1.60
2014,02,16,09,33,1.60
2014,02,16,09,34,3.20
2014,02,16,09,35,3.20
2014,02,16,09,36,3.20
2014,02,16,09,37,8.10
2014,02,16,09,38,8.10
2014,02,16,09,39,4.80
2014,02,16,09,40,3.20
2014,02,16,09,41,3.20
2014,02,16,09,42,4.80
2014,02,16,09,43,3.20
2014,02,16,09,44,1.60
2014,02,16,09,47,3.20
2014,02,16,09,48,3.20
2014,02,16,09,49,1.60
2014,02,16,10,07,1.60
2014,02,16,10,08,1.60
2014,02,16,10,09,1.60
2014,02,16,10,10,1.60
2014,02,16,10,11,1.60
2014,02,16,10,13,1.60
2014,02,16,10,14,1.60
2014,02,16,10,17,1.60
2014,02,16,10,27,1.60
2014,02,16,10,28,1.60
2014,02,16,10,33,6.40
2014,02,16,10,34,4.80
2014,02,16,10,35,1.60
2014,02,16,10,36,1.60
2014,02,16,10,37,4.80
2014,02,16,10,38,3.20
2014,02,16,10,41,3.20
2014,02,16,10,42,6.40
2014,02,16,10,43,6.40
2014,02,16,10,44,3.20
2014,02,16,10,45,4.80
2014,02,16,10,46,4.80
2014,02,16,10,47,4.80
2014,02,16,10,48,6.40
2014,02,16,10,49,6.40
2014,02,16,10,50,9.60
2014,02,16,10,51,8.10
2014,02,16,10,52,4.80
2014,02,16,10,53,6.40
2014,02,16,10,54,8.10
2014,02,16,10,55,6.40
2014,02,16,10,56,11.30
2014,02,16,10,57,8.10
2014,02,16,10,58,6.40
2014,02,16,10,59,8.10
2014,02,16,11,00,9.60
2014,02,16,11,01,8.10
2014,02,16,11,02,9.60
2014,02,16,11,03,9.60
2014,02,16,11,04,14.50
2014,02,16,11,05,17.70
2014,02,16,11,06,19.30
2014,02,16,11,07,11.30
2014,02,16,11,08,16.10
2014,02,16,11,09,9.60
2014,02,16,11,10,8.10
2014,02,16,11,11,8.10
2014,02,16,11,12,16.10
2014,02,16,11,13,14.50
2014,02,16,11,14,11.30
2014,02,16,11,15,11.30
2014,02,16,11,16,8.10
2014,02,16,11,17,12.90
2014,02,16,11,18,11.30
2014,02,16,11,19,17.70
2014,02,16,11,20,16.10
2014,02,16,11,21,11.30
2014,02,16,11,22,11.30
2014,02,16,11,23,14.50
2014,02,16,11,24,9.60
2014,02,16,11,25,24.20
2014,02,16,11,26,24.20
2014,02,16,11,27,17.70
2014,02,16,11,28,19.30
2014,02,16,11,29,20.90
2014,02,16,11,30,17.70
2014,02,16,11,31,17.70
2014,02,16,11,32,17.70
2014,02,16,11,33,19.30
2014,02,16,11,34,11.30
2014,02,16,11,35,8.10
2014,02,16,11,36,14.50
2014,02,16,11,37,16.10
2014,02,16,11,38,20.90
2014,02,16,11,39,12.90
2014,02,16,11,40,19.30
2014,02,16,11,41,22.50
2014,02,16,11,42,19.30
2014,02,16,11,43,27.40
2014,02,16,11,44,17.70
2014,02,16,11,45,20.90
2014,02,16,11,46,19.30
2014,02,16,11,47,4.80
2014,02,16,11,48,20.90
2014,02,16,11,49,20.90
2014,02,16,11,50,19.30
2014,02,16,11,51,22.50
2014,02,16,11,52,19.30
2014,02,16,11,53,14.50
2014,02,16,11,54,11.30
2014,02,16,11,55,12.90
2014,02,16,11,56,19.30
2014,02,16,11,57,20.90
2014,02,16,11,58,16.10
2014,02,16,11,59,9.60
2014,02,16,12,00,9.60
2014,02,16,12,01,14.50
2014,02,16,12,02,8.10
2014,02,16,12,03,16.10
2014,02,16,12,04,9.60
2014,02,16,12,05,8.10
2014,02,16,12,06,6.40
2014,02,16,12,07,14.50
2014,02,16,12,08,19.30
2014,02,16,12,09,17.70
2014,02,16,12,10,14.50
2014,02,16,12,11,17.70
2014,02,16,12,12,16.10
2014,02,16,12,13,9.60
2014,02,16,12,14,9.60
2014,02,16,12,15,4.80
2014,02,16,12,16,6.40
2014,02,16,12,17,6.40
2014,02,16,12,18,8.10
2014,02,16,12,19,12.90
2014,02,16,12,20,11.30
2014,02,16,12,21,12.90
2014,02,16,12,22,14.50
2014,02,16,12,23,20.90
2014,02,16,12,24,17.70
2014,02,16,12,25,16.10
2014,02,16,12,26,12.90
2014,02,16,12,27,12.90
2014,02,16,12,28,8.10
2014,02,16,12,29,9.60
2014,02,16,12,30,16.10
2014,02,16,12,31,16.10
2014,02,16,12,32,14.50
2014,02,16,12,33,16.10
2014,02,16,12,34,11.30
2014,02,16,12,35,14.50
2014,02,16,12,36,16.10
2014,02,16,12,37,16.10
2014,02,16,12,38,8.10
2014,02,16,12,39,9.60
2014,02,16,12,40,9.60
2014,02,16,12,41,6.40
2014,02,16,12,42,6.40
2014,02,16,12,43,4.80
2014,02,16,12,44,3.20
2014,02,16,12,45,4.80
2014,02,16,12,46,3.20
2014,02,16,12,47,8.10
2014,02,16,12,48,4.80
2014,02,16,12,49,8.10
2014,02,16,12,50,3.20
2014,02,16,12,51,1.60
2014,02,16,12,52,3.20
2014,02,16,12,53,9.60
2014,02,16,12,54,8.10
2014,02,16,12,55,4.80
2014,02,16,12,56,6.40
2014,02,16,12,57,8.10
2014,02,16,12,58,6.40
2014,02,16,12,59,9.60
2014,02,16,13,00,6.40
2014,02,16,13,01,6.40
2014,02,16,13,02,11.30
2014,02,16,13,03,9.60
2014,02,16,13,04,9.60
2014,02,16,13,05,9.60
2014,02,16,13,06,9.60
2014,02,16,13,07,8.10
2014,02,16,13,08,16.10
2014,02,16,13,09,8.10
2014,02,16,13,10,8.10
2014,02,16,13,11,9.60
2014,02,16,13,12,9.60
2014,02,16,13,13,8.10
2014,02,16,13,14,8.10
2014,02,16,13,15,6.40
2014,02,16,13,16,8.10
2014,02,16,13,17,8.10
2014,02,16,13,18,6.40
2014,02,16,13,19,11.30
2014,02,16,13,20,11.30
2014,02,16,13,21,8.10
2014,02,16,13,22,9.60
2014,02,16,13,23,9.60
2014,02,16,13,24,9.60
2014,02,16,13,25,4.80
2014,02,16,13,26,3.20
2014,02,16,13,27,3.20
2014,02,16,13,28,1.60
2014,02,16,13,29,3.20
2014,02,16,13,30,3.20
2014,02,16,13,31,3.20
2014,02,16,13,33,1.60
2014,02,16,13,35,1.60
2014,02,16,13,37,1.60
2014,02,16,13,38,6.40
2014,02,16,13,39,11.30
2014,02,16,13,40,14.50
2014,02,16,13,41,12.90
2014,02,16,13,42,11.30
2014,02,16,13,43,4.80
2014,02,16,13,44,6.40
2014,02,16,13,45,4.80
2014,02,16,13,46,9.60
2014,02,16,13,47,11.30
2014,02,16,13,48,4.80
2014,02,16,13,49,8.10
2014,02,16,13,50,4.80
2014,02,16,13,51,8.10
2014,02,16,13,52,6.40
2014,02,16,13,53,9.60
2014,02,16,13,54,8.10
2014,02,16,13,55,6.40
2014,02,16,13,56,4.80
2014,02,16,13,57,1.60
2014,02,16,13,58,3.20
2014,02,16,13,59,1.60
2014,02,16,14,00,3.20
2014,02,16,14,02,1.60
2014,02,16,14,03,1.60
2014,02,16,14,04,3.20
2014,02,16,14,05,1.60
2014,02,16,14,06,1.60
2014,02,16,14,07,1.60
2014,02,16,14,08,1.60
2014,02,16,14,10,1.60
2014,02,16,14,16,1.60
2014,02,16,14,19,1.60
2014,02,16,14,21,1.60
2014,02,16,14,22,3.20
2014,02,16,14,23,3.20
2014,02,16,14,25,1.60
2014,02,16,14,28,3.20
2014,02,16,14,29,4.80
2014,02,16,14,30,16.10
2014,02,16,14,31,14.50
2014,02,16,14,32,4.80
2014,02,16,14,33,4.80
2014,02,16,14,34,9.60
2014,02,16,14,35,3.20
2014,02,16,14,36,1.60
2014,02,16,14,37,9.60
2014,02,16,14,38,9.60
2014,02,16,14,39,6.40
2014,02,16,14,40,4.80
2014,02,16,14,41,6.40
2014,02,16,14,42,4.80
2014,02,16,14,43,8.10
2014,02,16,14,44,3.20
2014,02,16,14,45,6.40
2014,02,16,14,46,6.40
2014,02,16,14,47,11.30
2014,02,16,14,48,6.40
2014,02,16,14,49,19.30
2014,02,16,14,50,19.30
2014,02,16,14,51,19.30
2014,02,16,14,52,11.30
2014,02,16,14,53,9.60
2014,02,16,14,54,17.70
2014,02,16,14,55,17.70
2014,02,16,14,56,17.70
2014,02,16,14,57,22.50
2014,02,16,14,58,22.50
2014,02,16,14,59,25.70
2014,02,16,15,00,24.20
2014,02,16,15,01,14.50
2014,02,16,15,02,16.10
2014,02,16,15,03,19.30
2014,02,16,15,04,19.30
2014,02,16,15,05,22.50
2014,02,16,15,06,25.70
2014,02,16,15,07,14.50
2014,02,16,15,08,27.40
2014,02,16,15,09,17.70
2014,02,16,15,10,11.30
2014,02,16,15,11,8.10
2014,02,16,15,12,9.60
2014,02,16,15,13,11.30
2014,02,16,15,14,6.40
2014,02,16,15,15,6.40
2014,02,16,15,16,11.30
2014,02,16,15,17,8.10
2014,02,16,15,18,22.50
2014,02,16,15,19,16.10
2014,02,16,15,20,20.90
2014,02,16,15,21,17.70
2014,02,16,15,22,17.70
2014,02,16,15,23,6.40
2014,02,16,15,24,4.80
2014,02,16,15,25,11.30
2014,02,16,15,26,9.60
2014,02,16,15,27,9.60
2014,02,16,15,28,4.80
2014,02,16,15,29,1.60
2014,02,16,15,30,6.40
2014,02,16,15,31,11.30
2014,02,16,15,32,12.90
2014,02,16,15,33,9.60
2014,02,16,15,34,11.30
2014,02,16,15,35,12.90
2014,02,16,15,36,14.50
2014,02,16,15,37,11.30
2014,02,16,15,38,14.50
2014,02,16,15,39,11.30
2014,02,16,15,40,8.10
2014,02,16,15,41,6.40
2014,02,16,15,42,27.40
2014,02,16,15,43,19.30
2014,02,16,15,44,16.10
2014,02,16,15,45,8.10
2014,02,16,15,46,12.90
2014,02,16,15,47,9.60
2014,02,16,15,48,8.10
2014,02,16,15,49,8.10
2014,02,16,15,50,8.10
2014,02,16,15,51,4.80
2014,02,16,15,52,8.10
2014,02,16,15,53,6.40
2014,02,16,15,54,16.10
2014,02,16,15,55,9.60
2014,02,16,15,56,14.50
2014,02,16,15,57,16.10
2014,02,16,15,58,9.60
2014,02,16,15,59,9.60
2014,02,16,16,00,6.40
2014,02,16,16,01,9.60
2014,02,16,16,02,6.40
2014,02,16,16,03,11.30
2014,02,16,16,04,17.70
2014,02,16,16,05,38.60
2014,02,16,16,06,27.40
2014,02,16,16,07,17.70
2014,02,16,16,08,16.10
2014,02,16,16,09,17.70
2014,02,16,16,10,27.40
2014,02,16,16,11,11.30
2014,02,16,16,12,12.90
2014,02,16,16,13,6.40
2014,02,16,16,14,6.40
2014,02,16,16,15,6.40
2014,02,16,16,16,16.10
2014,02,16,16,17,9.60
2014,02,16,16,18,14.50
2014,02,16,16,19,11.30
2014,02,16,16,20,14.50
2014,02,16,16,21,22.50
2014,02,16,16,22,22.50
2014,02,16,16,23,17.70
2014,02,16,16,24,9.60
2014,02,16,16,25,8.10
2014,02,16,16,26,8.10
2014,02,16,16,27,8.10
2014,02,16,16,28,4.80
2014,02,16,16,29,9.60
2014,02,16,16,30,9.60
2014,02,16,16,31,4.80
2014,02,16,16,32,9.60
2014,02,16,16,33,14.50
2014,02,16,16,34,9.60
2014,02,16,16,35,6.40
2014,02,16,16,36,8.10
2014,02,16,16,37,9.60
2014,02,16,16,38,9.60
2014,02,16,16,39,4.80
2014,02,16,16,40,4.80
2014,02,16,16,41,4.80
2014,02,16,16,42,6.40
2014,02,16,16,43,8.10
2014,02,16,16,44,6.40
2014,02,16,16,45,6.40
2014,02,16,16,46,6.40
2014,02,16,16,47,16.10
2014,02,16,16,48,9.60
2014,02,16,16,49,8.10
2014,02,16,16,50,16.10
2014,02,16,16,51,6.40
2014,02,16,16,52,14.50
2014,02,16,16,53,9.60
2014,02,16,16,54,8.10
2014,02,16,16,55,8.10
2014,02,16,16,56,9.60
2014,02,16,16,57,16.10
2014,02,16,16,58,22.50
2014,02,16,16,59,11.30
2014,02,16,17,00,9.60
2014,02,16,17,01,6.40
2014,02,16,17,02,16.10
2014,02,16,17,03,20.90
2014,02,16,17,04,12.90
2014,02,16,17,05,11.30
2014,02,16,17,06,6.40
2014,02,16,17,07,11.30
2014,02,16,17,08,11.30
2014,02,16,17,09,6.40
2014,02,16,17,10,8.10
2014,02,16,17,11,8.10
2014,02,16,17,12,8.10
2014,02,16,17,13,9.60
2014,02,16,17,14,6.40
2014,02,16,17,15,6.40
2014,02,16,17,16,9.60
2014,02,16,17,17,22.50
2014,02,16,17,18,11.30
2014,02,16,17,19,16.10
2014,02,16,17,20,16.10
2014,02,16,17,21,24.20
2014,02,16,17,22,9.60
2014,02,16,17,23,9.60
2014,02,16,17,24,14.50
2014,02,16,17,25,20.90
2014,02,16,17,26,9.60
2014,02,16,17,27,9.60
2014,02,16,17,28,6.40
2014,02,16,17,29,6.40
2014,02,16,17,30,9.60
2014,02,16,17,31,14.50
2014,02,16,17,32,8.10
2014,02,16,17,33,16.10
2014,02,16,17,34,9.60
2014,02,16,17,35,9.60
2014,02,16,17,36,8.10
2014,02,16,17,37,14.50
2014,02,16,17,38,8.10
2014,02,16,17,39,8.10
2014,02,16,17,40,11.30
2014,02,16,17,41,3.20
2014,02,16,17,42,6.40
2014,02,16,17,43,11.30
2014,02,16,17,44,6.40
2014,02,16,17,45,9.60
2014,02,16,17,46,11.30
2014,02,16,17,47,4.80
2014,02,16,17,48,6.40
2014,02,16,17,49,8.10
2014,02,16,17,50,3.20
2014,02,16,17,51,4.80
2014,02,16,17,52,3.20
2014,02,16,17,53,11.30
2014,02,16,17,54,11.30
2014,02,16,17,55,8.10
2014,02,16,17,56,6.40
2014,02,16,17,57,6.40
2014,02,16,17,58,9.60
2014,02,16,17,59,11.30
2014,02,16,18,00,8.10
2014,02,16,18,01,8.10
2014,02,16,18,02,4.80
2014,02,16,18,03,14.50
2014,02,16,18,04,8.10
2014,02,16,18,05,3.20
2014,02,16,18,06,4.80
2014,02,16,18,07,9.60
2014,02,16,18,08,16.10
2014,02,16,18,09,8.10
2014,02,16,18,10,9.60
2014,02,16,18,11,8.10
2014,02,16,18,12,6.40
2014,02,16,18,13,4.80
2014,02,16,18,14,8.10
2014,02,16,18,15,9.60
2014,02,16,18,16,3.20
2014,02,16,18,17,6.40
2014,02,16,18,18,3.20
2014,02,16,18,19,3.20
2014,02,16,18,20,4.80
2014,02,16,18,21,8.10
2014,02,16,18,22,11.30
2014,02,16,18,23,9.60
2014,02,16,18,24,9.60
2014,02,16,18,25,9.60
2014,02,16,18,26,9.60
2014,02,16,18,27,11.30
2014,02,16,18,28,8.10
2014,02,16,18,29,9.60
2014,02,16,18,30,8.10
2014,02,16,18,31,14.50
2014,02,16,18,32,14.50
2014,02,16,18,33,12.90
2014,02,16,18,34,11.30
2014,02,16,18,35,6.40
2014,02,16,18,36,6.40
2014,02,16,18,37,8.10
2014,02,16,18,38,4.80
2014,02,16,18,39,3.20
2014,02,16,18,40,3.20
2014,02,16,18,41,3.20
2014,02,16,18,42,4.80
2014,02,16,18,44,1.60
2014,02,16,18,45,8.10
2014,02,16,18,46,6.40
2014,02,16,18,47,8.10
2014,02,16,18,48,8.10
2014,02,16,18,49,4.80
2014,02,16,18,50,6.40
2014,02,16,18,51,6.40
2014,02,16,18,52,4.80
2014,02,16,18,53,3.20
2014,02,16,18,54,1.60
2014,02,16,18,55,1.60
2014,02,16,18,56,1.60
2014,02,16,18,57,3.20
2014,02,16,18,58,6.40
2014,02,16,18,59,4.80
2014,02,16,19,00,11.30
2014,02,16,19,01,9.60
2014,02,16,19,02,11.30
2014,02,16,19,03,6.40
2014,02,16,19,04,4.80
2014,02,16,19,05,4.80
2014,02,16,19,10,3.20
2014,02,16,19,11,3.20
2014,02,16,19,12,1.60
2014,02,16,19,13,1.60
2014,02,16,19,14,4.80
2014,02,16,19,15,3.20
2014,02,16,19,16,4.80
2014,02,16,19,17,1.60
2014,02,16,19,18,3.20
2014,02,16,19,19,4.80
2014,02,16,19,20,6.40
2014,02,16,19,21,9.60
2014,02,16,19,22,14.50
2014,02,16,19,23,6.40
2014,02,16,19,24,16.10
2014,02,16,19,25,9.60
2014,02,16,19,26,8.10
2014,02,16,19,27,6.40
2014,02,16,19,28,1.60
2014,02,16,19,29,4.80
2014,02,16,19,30,11.30
2014,02,16,19,31,8.10
2014,02,16,19,32,6.40
2014,02,16,19,33,1.60
2014,02,16,19,34,3.20
2014,02,16,19,35,1.60
2014,02,16,19,36,1.60
2014,02,16,19,37,1.60
2014,02,16,19,40,4.80